CW2798 Aduanas ES current weather conditions

sailwx.info

Wind from 246 at 5 knots gusting 14

Air temperature 26.1° C
Dewpoint 18.5° C

Last reported at 2016-Jul-24 19:45 UTC.
Time now 2016-Jul-24 20:28 UTC

Location: N 38°48' E 000°11'.
View on Google Maps.

See reports from other nearby stations

  
Tides and Currents Weather Stations Pressure Air Temp Water Temp Dewpoint Dewpoint Depression Visibility Wind Speed Wind Dir Waves Ship Positions
date/time (UTC)wind fromknots sea level pressurealtimeterstation pressurevisibilityair tempwater tempwave heightnotes
2016-Jul-24 19:45 246 5 gusting 14 26.1
2016-Jul-24 19:30 252 4 gusting 9 26.1
2016-Jul-24 19:15 266 6 gusting 12 26.1
2016-Jul-24 18:30 306 7 gusting 12 27.2
2016-Jul-24 18:15 271 7 gusting 13 27.8
2016-Jul-24 17:45 322 7 gusting 14 28.3
2016-Jul-24 17:15 307 8 gusting 18 28.3
2016-Jul-24 16:30 263 11 gusting 17 28.3
2016-Jul-24 16:15 273 8 gusting 19 28.9
2016-Jul-24 16:00 286 6 gusting 12 29.4
2016-Jul-24 15:45 251 6 gusting 11 29.4
2016-Jul-24 15:15 247 6 gusting 11 29.4
2016-Jul-24 15:00 253 4 gusting 8 29.4
2016-Jul-24 14:15 358 6 gusting 10 28.3
2016-Jul-24 14:00 001 6 gusting 12 28.3
2016-Jul-24 13:30 354 6 gusting 9 27.8
2016-Jul-24 13:00 001 6 gusting 11 27.2
2016-Jul-24 12:15 359 6 gusting 10 27.2
2016-Jul-24 11:45 359 6 gusting 10 27.2
2016-Jul-24 11:30 001 6 gusting 11 27.8
2016-Jul-24 11:15 359 5 gusting 11 28.3
2016-Jul-24 10:30 359 5 gusting 6 27.8
2016-Jul-24 09:45 217 1 gusting 8 28.3
2016-Jul-24 09:30 239 3 gusting 4 27.8
2016-Jul-24 09:15 262 6 gusting 7 27.8
2016-Jul-24 09:00 266 3 gusting 9 27.2
2016-Jul-24 08:45 008 1 gusting 6 26.7
2016-Jul-24 07:45 214 25.6
2016-Jul-24 07:00 258 24.4
2016-Jul-24 06:30 23.9
2016-Jul-24 06:15 22.8
2016-Jul-24 05:30 21.7
2016-Jul-24 04:30 22.2
2016-Jul-24 04:15 22.2
2016-Jul-24 04:00 22.2
2016-Jul-24 03:45 22.2
2016-Jul-24 03:15 22.2
2016-Jul-24 03:00 22.2
2016-Jul-24 02:30 22.8
2016-Jul-24 01:30 22.8
2016-Jul-24 01:15 22.8
2016-Jul-24 00:45 23.9
2016-Jul-24 00:30 24.4
2016-Jul-24 00:15 24.4
2016-Jul-24 00:00 290 23.9
2016-Jul-23 23:30 279 24.4
2016-Jul-23 22:15 25.0
2016-Jul-23 21:45 259 1 gusting 3 25.0
2016-Jul-23 19:45 224 25.6
2016-Jul-23 19:30 25.6
2016-Jul-23 19:00 344 1 gusting 5 26.1
2016-Jul-23 18:45 220 1 gusting 7 26.1
2016-Jul-23 18:30 358 2 gusting 6 26.7
2016-Jul-23 17:45 007 1 gusting 5 27.8
2016-Jul-23 17:15 002 2 gusting 7 27.8
2016-Jul-23 17:00 359 2 gusting 6 27.8
2016-Jul-23 16:00 004 0 gusting 3 27.8
2016-Jul-23 15:30 27.2
2016-Jul-23 14:45 001 27.2
2016-Jul-23 13:30 018 27.8
2016-Jul-23 13:00 009 0 gusting 5 26.7
2016-Jul-23 12:15 002 2 gusting 7 26.1
2016-Jul-23 12:00 001 3 gusting 8 26.1
2016-Jul-23 11:30 013 1 gusting 5 26.1
2016-Jul-23 10:45 003 0 gusting 5 26.7
2016-Jul-23 10:30 003 1 gusting 8 26.1
2016-Jul-23 10:00 001 26.1
2016-Jul-23 09:15 005 26.7
2016-Jul-23 09:00 26.7
2016-Jul-23 08:30 26.7
2016-Jul-23 08:15 26.7
2016-Jul-23 08:00 26.7
2016-Jul-23 07:45 26.1
2016-Jul-23 07:30 26.1
2016-Jul-23 07:15 25.6
2016-Jul-23 06:30 354 25.0
2016-Jul-23 06:00 010 23.9
2016-Jul-23 05:45 23.3
2016-Jul-23 05:30 23.3
2016-Jul-23 05:15 23.3
2016-Jul-23 05:00 22.8
2016-Jul-23 04:30 23.9
2016-Jul-23 03:15 001 24.4
2016-Jul-23 03:00 344 24.4
2016-Jul-23 02:45 24.4
2016-Jul-23 02:00 069 0 gusting 0 24.4
2016-Jul-23 01:15 001 0 gusting 8 24.4
2016-Jul-23 01:00 001 2 gusting 7 24.4
2016-Jul-23 00:45 001 1 gusting 6 24.4
2016-Jul-23 00:30 002 1 gusting 6 25.0
2016-Jul-22 23:45 001 3 gusting 12 25.0
2016-Jul-22 23:15 001 2 gusting 13 25.6
2016-Jul-22 23:00 001 0 gusting 6 25.0
2016-Jul-22 22:15 001 4 gusting 10 25.0
2016-Jul-22 21:15 001 1 gusting 12 25.6
2016-Jul-22 20:30 355 4 gusting 12 25.6
2016-Jul-22 20:15 001 1 gusting 13 25.6